Location: Les Thiberg�res
(47.8554°N, 1.0978°W)
Time: 18:54:22
(UTC+00:00)

ATLAS CENTAUR R/B - Pass Details

Date: 17 February 2020
Orbit: 466 x 681 km, 64.7° (Epoch: 03 April)

Event Time Altitude Azimuth Distance (km) Brightness Sun altitude
Exits shadow 05:19:22 40° 286° (WNW) 939 2.0 -18.9°
Maximum altitude 05:20:10 44° 315° (NW) 872 2.0 -18.7°
Drops below altitude 10° 05:24:26 10° 28° (NNE) 1,956 4.5 -18.0°
Sets 05:26:43 0° 35° (NE) 2,824 5.5 -17.6°
